Philip, SD

5:31 PM MST on November 18, 2017 (GMT -0700)
Philip

Weather History for KPHP - December, 2010

Change the Weather History Date:

Monday, December 13, 2010

  Actual Average Record
Temperature  
Mean Temperature 17 °F 23 °F  
Max Temperature 24 °F 36 °F 59 °F (2014)
Min Temperature 10 °F 11 °F -19 °F (1961)
Degree Days  
Heating Degree Days 48 42  
Month to date heating degree days 597 523  
Since 1 July heating degree days 1737 2158  
Cooling Degree Days 0 0  
Month to date cooling degree days 0 0  
Year to date cooling degree days 847 818  
Moisture  
Dew Point 10 °F    
Average Humidity 72    
Maximum Humidity 83    
Minimum Humidity 60    
Precipitation  
Precipitation 0.01 in 0.01 in 0.40 in (1951)
Month to date precipitation 0.09 0.19  
Year to date precipitation 15.24 17.11  
Sea Level Pressure  
Sea Level Pressure 30.07 in    
Wind  
Wind Speed 7 mph (East)    
Max Wind Speed 16 mph    
Max Gust Speed 20 mph    
Visibility 10 miles    
Events Snow    
T = Trace of Precipitation, MM = Missing Value Source: NWS Daily Summary

Daily Weather History Graph

Daily Weather History Graph

Search for Another Location

Airport or City:

Trip Planner

Search our weather history database for the weather conditions in past years. The results will help you decide how hot, cold, wet, or windy it might be!

Date:

Astronomy

Dec. 13, 2010 Rise Set
Actual Time 7:12 AM MST 4:08 PM MST
Civil Twilight 6:39 AM MST 4:41 PM MST
Nautical Twilight 6:03 AM MST 5:17 PM MST
Astronomical Twilight 5:28 AM MST 5:53 PM MST
Moon 11:37 AM MST (12/13) No Moon Set
Length of Visible Light 10h 01m
Length of Day
8h 55m
First Quarter, 52% of the Moon is Illuminated
Dec 13
First Quarter
Dec 21
Full
Dec 27
Last Quarter
Jan 4
New
Jan 12
First Quarter

Hourly Weather History & Observations

Time (MST) Temp. Windchill Dew Point Humidity Pressure Visibility Wind Dir Wind Speed Gust Speed Precip Events Conditions
12:13 AM 10.4 °F -4.1 °F 6.8 °F 85% 30.08 in 4.0 mi East 11.5 mph - 0.01 in Snow Light Snow
12:40 AM 10.4 °F -4.1 °F 6.8 °F 85% 30.08 in 10.0 mi East 11.5 mph - 0.01 in   Overcast
12:53 AM 10.4 °F -4.8 °F 6.8 °F 85% 30.07 in 10.0 mi ESE 12.7 mph - 0.01 in   Overcast
12:55 AM 10.0 °F -4.5 °F 6.1 °F 84% 30.19 in 10.0 mi East 11.5 mph - 0.01 in   Overcast
1:06 AM 10.4 °F -4.8 °F 6.8 °F 85% 30.06 in 10.0 mi ESE 12.7 mph 18.4 mph N/A   Overcast
1:55 AM 10.9 °F -2.6 °F 6.1 °F 81% 30.18 in 10.0 mi East 10.4 mph - N/A   Overcast
2:30 AM 10.4 °F -4.1 °F 6.8 °F 85% 30.05 in 10.0 mi East 11.5 mph - N/A   Overcast
2:55 AM 10.9 °F -3.4 °F 6.1 °F 81% 30.16 in 10.0 mi East 11.5 mph - N/A   Overcast
3:55 AM 10.9 °F -2.6 °F 6.1 °F 81% 30.14 in 10.0 mi East 10.4 mph - N/A   Overcast
4:55 AM 10.9 °F 0.2 °F 6.1 °F 81% 30.12 in 10.0 mi East 6.9 mph - N/A   Partly Cloudy
5:55 AM 10.9 °F -0.8 °F 6.1 °F 81% 30.12 in 10.0 mi East 8.1 mph - N/A   Mostly Cloudy
6:55 AM 10.9 °F -0.8 °F 6.1 °F 81% 30.11 in 10.0 mi East 8.1 mph - N/A   Mostly Cloudy
7:55 AM 10.0 °F -1.9 °F 5.0 °F 80% 30.10 in 10.0 mi East 8.1 mph - N/A   Clear
8:55 AM 12.0 °F -0.4 °F 6.1 °F 77% 30.12 in 10.0 mi ENE 9.2 mph - N/A   Partly Cloudy
9:55 AM 15.1 °F 3.3 °F 7.0 °F 70% 30.11 in 10.0 mi East 9.2 mph - N/A   Scattered Clouds
10:55 AM 19.0 °F 11.1 °F 9.0 °F 65% 30.09 in 10.0 mi East 5.8 mph - N/A   Clear
11:55 AM 19.0 °F 13.9 °F 9.0 °F 65% 30.07 in 10.0 mi East 3.5 mph - N/A   Clear
12:55 PM 21.9 °F 14.5 °F 10.9 °F 63% 30.06 in 10.0 mi ENE 5.8 mph - N/A   Clear
1:55 PM 24.1 °F 18.2 °F 12.9 °F 62% 30.04 in 10.0 mi East 4.6 mph - N/A   Clear
2:55 PM 24.1 °F 17.0 °F 12.9 °F 62% 30.03 in 10.0 mi East 5.8 mph - N/A   Clear
3:55 PM 23.0 °F 14.7 °F 12.9 °F 65% 30.03 in 10.0 mi ESE 6.9 mph - N/A   Clear
4:55 PM 23.0 °F 17.0 °F 15.1 °F 72% 30.03 in 10.0 mi East 4.6 mph - N/A   Clear
5:55 PM 23.0 °F 17.0 °F 15.1 °F 72% 30.03 in 10.0 mi ENE 4.6 mph - N/A   Overcast
6:55 PM 23.0 °F 18.4 °F 16.0 °F 74% 30.02 in 10.0 mi East 3.5 mph - N/A   Overcast
7:55 PM 23.0 °F - 16.0 °F 74% 30.02 in 10.0 mi Calm Calm - N/A   Overcast
8:55 PM 23.0 °F 15.8 °F 16.0 °F 74% 30.01 in 10.0 mi East 5.8 mph - N/A   Overcast
9:55 PM 21.9 °F 14.5 °F 15.1 °F 75% 30.01 in 10.0 mi East 5.8 mph - N/A   Overcast
10:55 PM 19.0 °F 11.1 °F 14.0 °F 81% 30.01 in 10.0 mi East 5.8 mph - N/A   Mostly Cloudy
11:55 PM 19.0 °F 12.3 °F 15.1 °F 85% 29.99 in 10.0 mi East 4.6 mph - N/A   Partly Cloudy